Meteopurmerend
purmerend
Purmerend - Baaienwijk



My webcam  My webcam


Onweer radar Meer informatie blitzortung!


Regen radar Meer informatie rain snow radar


Bezoek onze andere website:

CandyAppleRed WebdesignWebdesign Purmerend Candy Apple Red

MeteopurmerendBlog

Template documentation
and downloads



Het weer levert geen direct gevaar op.    Er zijn geen waarschuwingen afgegeven.

15 daagse weersverwachting Lillestrøm (NO)

  • Overzicht
  • Per uur
  • 15 dagen
  • Extra
  • Vergelijk
  • Kaarten
  • Dagkaart
  • Meer »
  • Info
  • Statistieken
  • Directe link
    Temp 6h Neerslag Wind  
 04:17     22:11    Daglengte: 17:54 Vandaag
08:00
2.4 mm
2
14:00
13°
4.2 mm
2
20:00
13°
2.4 mm
3
 04:15     22:13    Daglengte: 17:58 Morgen
02:00
 
2
08:00
 
3
14:00
2.5 mm
5
20:00
11°
5.2 mm
5
 04:13     22:15    Daglengte: 18:02 Zaterdag 28 Mei
02:00
3.9 mm
4
08:00
11°
 
5
14:00
16°
 
7
20:00
14°
 
5
 04:11     22:17    Daglengte: 18:06 Zondag 29 Mei
02:00
 
2
Locatie info
Region: Akershus
Latitude: 59.9570°N
Longitude: 11.0483°E
116 masl
Postcode: 2000
Temp/Neerslag /Baro Onweer/Dauwpunt
    Temp Baro 1h Neerslag Dauwpunt Wind UV Bewolking  
 04:17     22:11    Daglengte: 17:54 Vandaag
07:00
Voelt als: 7.3°
998.7 hPa 2.4 mm
49%
8.1°
3
Windvlaag: 3.2 m/s
86%
08:00
Voelt als: 7.7°
998.4 hPa
75%
8.3°
2
Windvlaag: 1.4 m/s
86%
09:00
Voelt als: 8.0°
998.4 hPa
81%
8.5°
2
Windvlaag: -0.5 m/s
86%
10:00
Voelt als: 8.7°
998.7 hPa 2.0 mm
82%
8.6°
2
Windvlaag: -1.5 m/s
86%
11:00
10°
Voelt als: 9.2°
999.0 hPa
81%
8.7°
2
Windvlaag: -2.3 m/s
86%
12:00
10°
999.4 hPa
74%
8.8°
2
Windvlaag: -2.8 m/s
82%
13:00
11°
999.7 hPa
82%
9.5°
2
Windvlaag: -3.4 m/s
78%
14:00
13°
1000.1 hPa 2.3 mm
82%
10.2°
2
Windvlaag: -3.2 m/s
39%
15:00
13°
1000.3 hPa 2.4 mm
82%
10.2°
2
Windvlaag: -4 m/s
74%
16:00
13°
1000.4 hPa
82%
10.4°
2
Windvlaag: -3.2 m/s
32% warningclass
17:00
14°
1000.3 hPa
82%
10.3°
3
Windvlaag: 1.9 m/s
16%
18:00
13°
1000.1 hPa
82%
9.6°
2
Windvlaag: 3.3 m/s
43%
19:00
13°
1000.0 hPa
80%
9.6°
2
Windvlaag: 2.7 m/s
9%
20:00
13°
999.9 hPa
72%
9.2°
3
Windvlaag: 0.3 m/s
9%
21:00
12°
1000.0 hPa
17%
8.3°
2
Windvlaag: 0.2 m/s
10%
22:00
10°
1000.3 hPa
14%
7.6°
2
Windvlaag: 2.2 m/s
6%
23:00
Voelt als: 8.0°
1000.6 hPa
14%
6.9°
2
Windvlaag: 1.3 m/s
5%
 04:15     22:13    Daglengte: 17:58 Morgen
00:00
Voelt als: 6.8°
1000.8 hPa
15%
5.7°
2
Windvlaag: 0.1 m/s
6%
01:00
Voelt als: 6.1°
1000.8 hPa
15%
4.5°
2
Windvlaag: 0.2 m/s
11%
02:00
Voelt als: 5.4°
1000.8 hPa
14%
4.3°
2
Windvlaag: 1 m/s
27%
03:00
Voelt als: 5.0°
1000.7 hPa
14%
4.0°
2
Windvlaag: 0.9 m/s
15%
04:00
Voelt als: 4.4°
1000.5 hPa
14%
3.6°
2
Windvlaag: 1.2 m/s
35%
05:00
Voelt als: 3.8°
1000.4 hPa
14%
3.5°
2
Windvlaag: 2.2 m/s
38%
06:00
Voelt als: 4.7°
1000.2 hPa
14%
3.8°
2
Windvlaag: 1.8 m/s
8%
07:00
Voelt als: 6.1°
1000.0 hPa
14%
4.5°
2
Windvlaag: 2 m/s
7%
08:00
Voelt als: 7.8°
999.9 hPa
15%
4.5°
3
Windvlaag: 0.3 m/s
24%
09:00
10°
999.7 hPa
15%
1.1°
4
Windvlaag: -1.5 m/s
23%
10:00
11°
999.6 hPa
16%
1.8°
4
Windvlaag: -2.4 m/s
28%
11:00
11°
999.6 hPa
18%
2.6°
5
Windvlaag: -3.1 m/s
57%
12:00
10°
999.7 hPa
32%
3.8°
4
Windvlaag: -2.9 m/s
77%
13:00
10°
Voelt als: 7.8°
999.8 hPa
77%
5.5°
4
Windvlaag: -2.5 m/s
68%
14:00
Voelt als: 6.8°
999.9 hPa 2.5 mm
79%
5.4°
5
Windvlaag: -5.4 m/s
70%
15:00
10°
Voelt als: 7.2°
999.8 hPa
82%
5.8°
5
Windvlaag: -6.1 m/s
85%
16:00
10°
999.6 hPa
82%
7.1°
5
Windvlaag: -7 m/s
84%
17:00
10°
999.7 hPa 2.6 mm
80%
7.4°
4
Windvlaag: -6.6 m/s
85%
18:00
10°
999.6 hPa 2.6 mm
71%
7.3°
4
Windvlaag: -5.4 m/s
85%
19:00
11°
999.6 hPa
29%
7.6°
4
Windvlaag: -3.2 m/s
83%
20:00
11°
999.8 hPa
14%
6.2°
5
Windvlaag: -4.1 m/s
66%
21:00
11°
1000.4 hPa
14%
4.0°
5
Windvlaag: -5 m/s
50%
22:00
10°
1001.0 hPa
14%
4.4°
4
Windvlaag: -5.7 m/s
56%
23:00
Voelt als: 6.5°
1001.1 hPa 3.9 mm
21%
3.3°
5
Windvlaag: -5.9 m/s
88%
 04:13     22:15    Daglengte: 18:02 Zaterdag 28 Mei
00:00
Voelt als: 6.3°
1001.5 hPa
22%
3.2°
4
Windvlaag: -5.5 m/s
88%
01:00
Voelt als: 6.2°
1001.7 hPa
25%
1.8°
4
Windvlaag: -5.1 m/s
86%
02:00
Voelt als: 6.1°
1001.7 hPa
27%
2.5°
4
Windvlaag: -4.3 m/s
89%
03:00
Voelt als: 6.0°
1001.7 hPa
27%
2.6°
4
Windvlaag: -4.1 m/s
92%
04:00
Voelt als: 5.6°
1001.9 hPa
26%
2.5°
4
Windvlaag: -4.2 m/s
84%
05:00
Voelt als: 6.4°
1002.1 hPa
26%
1.8°
4
Windvlaag: -4.1 m/s
77%
06:00
Voelt als: 6.9°
1002.4 hPa
22%
1.5°
5
Windvlaag: -3.8 m/s
59%
07:00
10°
1002.6 hPa
65%
1.5°
5
Windvlaag: -3.8 m/s
84%
08:00
11°
1002.9 hPa
30%
1.3°
5
Windvlaag: -4.6 m/s
88%
09:00
12°
1003.2 hPa
97%
0.8°
5
Windvlaag: -5.6 m/s
80%
10:00
13°
1003.5 hPa
94%
1.2°
6
Windvlaag: -6.2 m/s
60%
11:00
14°
1003.7 hPa
37%
1.2°
6
Windvlaag: -6.9 m/s
69%
12:00
15°
1004.1 hPa
92%
1.0°
7
Windvlaag: -7.2 m/s
62%
13:00
15°
1004.2 hPa
83%
0.9°
7
Windvlaag: -6.7 m/s
76%
14:00
16°
1004.6 hPa
25%
0.4°
7
Windvlaag: -6.2 m/s
65%
15:00
16°
1004.9 hPa
21%
0.2°
7
Windvlaag: -6 m/s
57%
16:00
16°
1005.1 hPa
21%
0.0°
7
Windvlaag: -5.5 m/s
22%
17:00
16°
1005.2 hPa
21%
0.1°
6
Windvlaag: -5.5 m/s
31%
18:00
16°
1005.7 hPa
21%
0.3°
6
Windvlaag: -5.1 m/s
25%
19:00
15°
1006.1 hPa
21%
-0.1°
6
Windvlaag: -4.1 m/s
20%
20:00
14°
1006.6 hPa
21%
-1.4°
5
Windvlaag: -4.1 m/s
10%
21:00
13°
1007.0 hPa
21%
-1.1°
5
Windvlaag: -4.2 m/s
10%
22:00
11°
1007.6 hPa
21%
-0.4°
4
Windvlaag: -4.5 m/s
19%
23:00
10°
Voelt als: 7.9°
1008.0 hPa
21%
0.0°
4
Windvlaag: -4.3 m/s
33%
 04:11     22:17    Daglengte: 18:06 Zondag 29 Mei
00:00
Voelt als: 7.2°
1007.7 hPa
21%
0.9°
4
Windvlaag: 10.1 m/s
22%
01:00
Voelt als: 7.0°
1007.7 hPa
21%
1.6°
3
Windvlaag: 9.9 m/s
0%
02:00
Voelt als: 6.5°
1007.7 hPa
21%
0.9°
2
Windvlaag: 10.3 m/s
27%
03:00
Voelt als: 6.5°
1007.7 hPa
21%
1.0°
2
Windvlaag: 12 m/s
76%
04:00
Voelt als: 6.5°
1007.7 hPa
21%
0.9°
2
Windvlaag: 12.1 m/s
76%
05:00
Voelt als: 6.6°
1007.7 hPa
21%
0.2°
2
Windvlaag: 11.6 m/s
80%
06:00
Voelt als: 7.0°
1007.6 hPa
21%
-1.2°
2
Windvlaag: 6.6 m/s
68%
Temp/Neerslag /Baro Onweer/Dauwpunt
    Temp Baro Neerslag Dauwpunt Wind Bewolking  
 04:17     22:11    Daglengte: 17:54 Vandaag
08:00
Voelt als: 7.7°
998.4 hPa 2.4 mm 8.3°
2
86%
11:00
10°
Voelt als: 9.2°
999.0 hPa 2.0 mm 8.7°
2
86%
14:00
13°
1000.1 hPa 2.3 mm 10.2°
2
39%
17:00
14°
1000.3 hPa 2.4 mm 10.3°
3
16%
20:00
13°
999.9 hPa   9.2°
3
9%
23:00
Voelt als: 8.0°
1000.6 hPa   6.9°
2
5%
 04:15     22:13    Daglengte: 17:58 Morgen
02:00
Voelt als: 5.4°
1000.8 hPa   4.3°
2
27%
05:00
Voelt als: 3.8°
1000.4 hPa   3.5°
2
38%
08:00
Voelt als: 7.8°
999.9 hPa   4.5°
3
24%
11:00
11°
999.6 hPa   2.6°
5
57%
14:00
Voelt als: 6.8°
999.9 hPa 2.5 mm 5.4°
5
70%
17:00
10°
999.7 hPa 2.6 mm 7.4°
4
85%
20:00
11°
999.8 hPa 2.6 mm 6.2°
5
66%
23:00
Voelt als: 6.5°
1001.1 hPa 3.9 mm 3.3°
5
88%
 04:13     22:15    Daglengte: 18:02 Zaterdag 28 Mei
02:00
Voelt als: 6.1°
1001.7 hPa   2.5°
4
89%
05:00
Voelt als: 6.4°
1002.1 hPa   1.8°
4
77%
08:00
11°
1002.9 hPa   1.3°
5
88%
11:00
14°
1003.7 hPa   1.2°
6
69%
14:00
16°
1004.6 hPa   0.4°
7
65%
17:00
16°
1005.2 hPa   0.1°
6
31%
20:00
14°
1006.6 hPa   -1.4°
5
10%
23:00
10°
Voelt als: 7.9°
1008.0 hPa   0.0°
4
33%
 04:11     22:17    Daglengte: 18:06 Zondag 29 Mei
02:00
Voelt als: 6.5°
1007.7 hPa   0.9°
2
27%
05:00
Voelt als: 6.6°
1007.7 hPa   0.2°
2
80%
08:00
10°
1007.6 hPa   -1.0°
3
35%
11:00
15°
1007.5 hPa 16.3 mm -0.7°
2
1%
14:00
16°
1007.1 hPa 16.3 mm -0.2°
2
1%
17:00
17°
1007.0 hPa 16.3 mm -0.2°
3
1%
20:00
14°
1007.7 hPa 16.3 mm 3.1°
3
1%
23:00
Voelt als: 6.8°
1010.5 hPa 16.3 mm 5.1°
3
1%
 04:10     22:19    Daglengte: 18:09 Maandag 30 Mei
02:00
Voelt als: 4.2°
1011.5 hPa 16.3 mm 5.0°
2
1%
05:00
Voelt als: 6.1°
1011.5 hPa 16.3 mm 4.6°
1
1%
08:00
10°
1011.4 hPa 16.3 mm 4.9°
2
1%
11:00
13°
1011.1 hPa 16.3 mm 5.6°
2
1%
14:00
14°
1010.8 hPa 16.5 mm 5.6°
2
1%
17:00
16°
1009.7 hPa 16.7 mm 5.1°
1
1%
20:00
14°
1009.5 hPa 16.8 mm 6.2°
1
1%
23:00
1010.5 hPa 16.9 mm 6.6°
1
1%
 04:08     22:21    Daglengte: 18:13 Dinsdag 31 Mei
02:00
Voelt als: 7.4°
1011.4 hPa 16.9 mm 6.3°
1
0%
05:00
1011.8 hPa 16.9 mm 6.3°
1
1%
08:00
11°
1012.3 hPa 16.9 mm 6.2°
1
1%
11:00
14°
1012.1 hPa 17.7 mm 6.8°
2
1%
14:00
13°
1012.6 hPa 18.8 mm 8.7°
3
1%
17:00
15°
1011.6 hPa 19.7 mm 8.1°
1
1%
20:00
13°
1012.0 hPa 20.7 mm 10.4°
1
1%
23:00
1013.5 hPa 20.7 mm 7.2°
1
0%
 04:07     22:23    Daglengte: 18:16 Woensdag 01 Jun
02:00
1013.9 hPa 20.7 mm 6.1°
0
0%
05:00
Voelt als: 6.0°
1014.5 hPa 20.7 mm 6.0°
1
0%
08:00
11°
1014.8 hPa 20.7 mm 8.6°
1
0%
11:00
16°
1013.8 hPa 21.8 mm 8.4°
1
0%
14:00
20°
1012.8 hPa 22.1 mm 5.3°
0
0%
17:00
18°
1012.6 hPa 22.1 mm 4.8°
2
1%
20:00
15°
1013.3 hPa 22.1 mm 7.1°
4
1%
23:00
Voelt als: 8.7°
1014.2 hPa 22.1 mm 8.1°
2
0%
 04:06     22:24    Daglengte: 18:18 Donderdag 02 Jun
02:00
1014.9 hPa 22.1 mm 7.3°
1
0%
05:00
Voelt als: 7.6°
1015.7 hPa   7.2°
1
1%
08:00
14°
1015.9 hPa 44.1 mm 6.5°
2
0%
14:00
22°
1015.3 hPa 44.1 mm 7.6°
1
0%
20:00
17°
1015.5 hPa 44.1 mm 7.5°
3
1%
 04:04     22:26    Daglengte: 18:22 Vrijdag 03 Jun
02:00
12°
1019.0 hPa 44.2 mm 6.5°
2
1%
08:00
14°
1019.3 hPa 44.3 mm 5.1°
3
0%
14:00
22°
1018.7 hPa 44.3 mm 6.6°
2
1%
20:00
18°
1019.4 hPa 44.3 mm 8.7°
1
1%
 04:03     22:28    Daglengte: 18:25 Zaterdag 04 Jun
02:00
11°
1022.5 hPa 44.3 mm 7.9°
2
0%
08:00
17°
1024.2 hPa 44.3 mm 8.5°
1
0%
14:00
24°
1022.6 hPa 44.3 mm 5.2°
2
0%
20:00
21°
1022.1 hPa 44.3 mm 8.8°
3
1%
 04:02     22:29    Daglengte: 18:27 Zondag 05 Jun
02:00
10°
Voelt als: 9.4°
1015.4 hPa 0.4 mm 6.8°
1
56%
08:00
12°
1015.2 hPa 0.7 mm 7.4°
2
57%
14:00
18°
1014.1 hPa 0.7 mm 7.5°
1
63%
20:00
16°
1013.1 hPa 0.6 mm 8.1°
1
61%
 04:01     22:30    Daglengte: 18:29 Maandag 06 Jun
02:00
10°
1014.8 hPa 0.2 mm 6.5°
1
64%
08:00
13°
1014.6 hPa 0.3 mm 7.8°
1
60%
14:00
18°
1013.3 hPa   8.3°
0
64%
20:00
17°
1011.8 hPa 0.8 mm 9.0°
1
60%
 04:00     22:32    Daglengte: 18:32 Dinsdag 07 Jun
02:00
10°
1012.9 hPa 0.4 mm 7.4°
1
42%
08:00
13°
1012.2 hPa 0.7 mm 8.1°
1
64%
14:00
19°
1010.4 hPa   8.0°
1
71%
20:00
16°
1009.2 hPa 1.2 mm 9.8°
1
69%
 03:59     22:33    Daglengte: 18:34 Woensdag 08 Jun
02:00
10°
1010.4 hPa 0.7 mm 7.6°
0
65%
08:00
13°
1010.1 hPa 0.9 mm 8.5°
1
68%
14:00
18°
1009.1 hPa 1.5 mm 9.2°
1
62%
20:00
16°
1008.5 hPa 1.5 mm 9.4°
0
69%
 03:58     22:34    Daglengte: 18:36 Donderdag 09 Jun
02:00
10°
1009.9 hPa 0.5 mm 7.5°
0
77%
08:00
13°
1009.9 hPa 0.4 mm 7.9°
0
87%
14:00
18°
1009.1 hPa 0.6 mm 8.2°
1
70%
20:00
16°
1008.4 hPa 0.7 mm 9.5°
1
69%
 03:57     22:36    Daglengte: 18:39 Vrijdag 10 Jun
02:00
11°
1009.8 hPa 0.5 mm 8.2°
0
57%
  CAPE Lifted Index Hail Supercell Tornado SRH 3km CL BTM PRES CL TOP PRES Swiss DWD icon SMHI TS
 04:17     22:11    Daglengte: 17:54 Vandaag
07:00 1 J/kg 1.0 K 0 % 0 % 0 % 0 m²/s² 0 0 1.45 61
08:00 12 J/kg 0.6 K 0 % 0 % 0 % 0 m²/s² 0 0 1.08 3
09:00 17 J/kg 0.1 K 0 % 0 % 0 % 0 m²/s² 0 0 0.64 61
10:00 25 J/kg 0.3 K 0 % 0 % 0 % 0 m²/s² 0 0 0.9 61
11:00 32 J/kg 0.2 K 0 % 0 % 0 % 0 m²/s² 0 0 1.04 3
12:00 122 J/kg -0.5 K 0 % 0 % 0 % 0 m²/s² 0 0 0.07 3
13:00 253 J/kg -1.3 K 0 % 0 % 0 % 0 m²/s² 0 0 -0.91 61
14:00 315 J/kg -1.8 K 0 % 0 % 0 % 0 m²/s² 0 0 -1.47 80
15:00 427 J/kg -2.2 K 0 % 0 % 0 % 0 m²/s² 0 0 -1.75 3
16:00 405 J/kg -2.0 K 0 % 0 % 0 % 0 m²/s² 0 0 -1.61 95
17:00 194 J/kg -0.8 K 0 % 0 % 0 % 0 m²/s² 0 0 -0.32 2
18:00 112 J/kg -0.2 K 0 % 0 % 0 % 0 m²/s² 0 0 1.09 80
19:00 50 J/kg 0.7 K 0 % 0 % 0 % 0 m²/s² 0 0 3.04 80
20:00 66 J/kg 0.8 K 0 % 0 % 0 % 0 m²/s² 0 0 3.35 1
21:00 63 J/kg 1.1 K 0 % 0 % 0 % 0 m²/s² 0 0 3.86 1
22:00 6 J/kg 1.6 K 0 % 0 % 0 % 0 m²/s² 0 0 4.84 2
23:00 0 J/kg 2.6 K 0 % 0 % 0 % 0 m²/s² 0 0 5.84 1
 04:15     22:13    Daglengte: 17:58 Morgen
00:00 0 J/kg 2.3 K 0 % 0 % 0 % 0 m²/s² 0 0 5.36 2
01:00 0 J/kg 1.7 K 0 % 0 % 0 % 0 m²/s² 0 0 4.85 2
02:00 0 J/kg 2.1 K 0 % 0 % 0 % 0 m²/s² 0 0 4.83 2
03:00 0 J/kg 1.2 K 0 % 0 % 0 % 0 m²/s² 0 0 3.3 2
04:00 0 J/kg 1.4 K 0 % 0 % 0 % 0 m²/s² 0 0 3.44 2
05:00 0 J/kg 1.7 K 0 % 0 % 0 % 0 m²/s² 0 0 4.67 2
06:00 0 J/kg 2.8 K 0 % 0 % 0 % 0 m²/s² 0 0 6.67 1
07:00 0 J/kg 3.4 K 0 % 0 % 0 % 0 m²/s² 0 0 7.15 0
08:00 0 J/kg 4.0 K 0 % 0 % 0 % 0 m²/s² 0 0 7.96 3
09:00 0 J/kg 4.0 K 0 % 0 % 0 % 0 m²/s² 0 0 7.96 3
10:00 3 J/kg 3.7 K 0 % 0 % 0 % 0 m²/s² 0 0 7.96 3
11:00 5 J/kg 3.7 K 0 % 0 % 0 % 0 m²/s² 0 0 8.2 3
12:00 8 J/kg 3.7 K 0 % 0 % 0 % 0 m²/s² 0 0 8.44 3
13:00 14 J/kg 3.6 K 0 % 0 % 0 % 0 m²/s² 0 0 6.84 61
14:00 0 J/kg 3.5 K 0 % 0 % 0 % 0 m²/s² 0 0 4.31 61
15:00 6 J/kg 2.9 K 0 % 0 % 0 % 0 m²/s² 0 0 3.29 61
16:00 1 J/kg 2.2 K 0 % 0 % 0 % 0 m²/s² 0 0 2.59 61
17:00 3 J/kg 1.2 K 0 % 0 % 0 % 0 m²/s² 0 0 1.56 61
18:00 62 J/kg 0.0 K 0 % 0 % 0 % 0 m²/s² 0 0 0.57 61
19:00 102 J/kg -0.1 K 0 % 0 % 0 % 0 m²/s² 0 0 0.29 3
20:00 60 J/kg 0.5 K 0 % 0 % 0 % 0 m²/s² 0 0 1.07 3
21:00 24 J/kg 1.9 K 0 % 0 % 0 % 0 m²/s² 0 0 2.26 3
22:00 0 J/kg 4.3 K 0 % 0 % 0 % 0 m²/s² 0 0 4.84 3
23:00 0 J/kg 4.8 K 0 % 0 % 0 % 0 m²/s² 0 0 5.34 3
 04:13     22:15    Daglengte: 18:02 Zaterdag 28 Mei
00:00 0 J/kg 4.1 K 0 % 0 % 0 % 0 m²/s² 0 0 4.85 3
01:00 0 J/kg 3.6 K 0 % 0 % 0 % 0 m²/s² 0 0 4.44 3
02:00 0 J/kg 3.5 K 0 % 0 % 0 % 0 m²/s² 0 0 4.28 3
03:00 0 J/kg 3.9 K 0 % 0 % 0 % 0 m²/s² 0 0 5.22 3
04:00 0 J/kg 4.4 K 0 % 0 % 0 % 0 m²/s² 0 0 5.27 3
05:00 0 J/kg 4.8 K 0 % 0 % 0 % 0 m²/s² 0 0 5.13 3
06:00 0 J/kg 6.6 K 0 % 0 % 0 % 0 m²/s² 0 0 7.62 3
07:00 0 J/kg 6.5 K 0 % 0 % 0 % 0 m²/s² 0 0 7.46 3
08:00 0 J/kg 6.7 K 0 % 0 % 0 % 0 m²/s² 0 0 7.33 3
09:00 0 J/kg 6.4 K 0 % 0 % 0 % 0 m²/s² 0 0 7.51 3
10:00 0 J/kg 5.8 K 0 % 0 % 0 % 0 m²/s² 0 0 7.69 3
11:00 0 J/kg 5.7 K 0 % 0 % 0 % 0 m²/s² 0 0 7.41 3
12:00 0 J/kg 5.4 K 0 % 0 % 0 % 0 m²/s² 0 0 7.23 3
13:00 0 J/kg 5.0 K 0 % 0 % 0 % 0 m²/s² 0 0 6.65 3
14:00 0 J/kg 4.8 K 0 % 0 % 0 % 0 m²/s² 0 0 6.24 3
15:00 1 J/kg 3.8 K 0 % 0 % 0 % 0 m²/s² 0 0 5.45 3
16:00 0 J/kg 3.6 K 0 % 0 % 0 % 0 m²/s² 0 0 5.64 2
17:00 0 J/kg 3.6 K 0 % 0 % 0 % 0 m²/s² 0 0 5.97 2
18:00 2 J/kg 3.6 K 0 % 0 % 0 % 0 m²/s² 0 0 6.09 2
19:00 0 J/kg 4.6 K 0 % 0 % 0 % 0 m²/s² 0 0 7.78 2
20:00 0 J/kg 5.9 K 0 % 0 % 0 % 0 m²/s² 0 0 9.62 2
21:00 0 J/kg 6.1 K 0 % 0 % 0 % 0 m²/s² 0 0 10.24 2
22:00 0 J/kg 6.5 K 0 % 0 % 0 % 0 m²/s² 0 0 11.06 2
23:00 0 J/kg 7.2 K 0 % 0 % 0 % 0 m²/s² 0 0 11.88 3
 04:11     22:17    Daglengte: 18:06 Zondag 29 Mei
00:00 0 J/kg 7.5 K 0 % 0 % 0 % 0 m²/s² 0 0 12.18 3
01:00 0 J/kg 7.6 K 0 % 0 % 0 % 0 m²/s² 0 0 12.01 1
02:00 0 J/kg 7.4 K 0 % 0 % 0 % 0 m²/s² 0 0 11.27 2
03:00 0 J/kg 7.7 K 0 % 0 % 0 % 0 m²/s² 0 0 10.85 3
04:00 0 J/kg 8.4 K 0 % 0 % 0 % 0 m²/s² 0 0 11.07 3
05:00 0 J/kg 8.8 K 0 % 0 % 0 % 0 m²/s² 0 0 10.84 3
06:00 0 J/kg 8.7 K 0 % 0 % 0 % 0 m²/s² 0 0 10.14 3
Temp Baro Wind Neerslag
  EWN Forecast EWN WRFDA DWD ICON FMI HIRLAM MET Norway GFS
 04:17     22:11    Daglengte: 17:54 Vandaag
08:00 8.9° 998.4 hPa 2.2 m/s 2.4 mm 9.0° 995.8 hPa 2.1 m/s 8.2 mm 9.7° 999.4 hPa 2.7 m/s 1.5 mm 8.8° 998.4 hPa 1.6 m/s 0.0 mm 8.2° 998.5 hPa 1.6 m/s
11:00 9.9° 999.0 hPa 1.9 m/s 2.0 mm 9.4° 997.2 hPa 2.5 m/s 25.8 mm 11.0° 999.8 hPa 0.3 m/s 0.2 mm 9.9° 998.7 hPa 2.1 m/s 0.0 mm 8.7° 999.6 hPa 0.7 m/s
14:00 12.5° 1000.1 hPa 2.0 m/s 2.3 mm 12.6° 997.8 hPa 2.7 m/s 29.2 mm 13.0° 1000.4 hPa 1.0 m/s 0.4 mm 10.8° 1000.4 hPa 2.3 m/s 0.0 mm 13.7° 999.7 hPa 0.4 m/s
17:00 13.6° 1000.3 hPa 2.6 m/s 2.4 mm 15.6° 997.7 hPa 6.6 m/s 31.6 mm 13.8° 1000.6 hPa 2.5 m/s 1.5 mm 11.7° 1001.2 hPa 1.6 m/s 0.0 mm 13.8° 998.8 hPa 0.9 m/s
20:00 13.1° 999.9 hPa 2.9 m/s 0.0 mm 15.2° 998.0 hPa 5.8 m/s 32.6 mm 13.9° 999.5 hPa 1.8 m/s 1.0 mm 12.3° 1001.5 hPa 2.6 m/s 0.0 mm 13.4° 998.0 hPa 1.2 m/s
23:00 9.2° 1000.6 hPa 2.3 m/s 0.0 mm 10.0° 999.1 hPa 3.5 m/s 32.6 mm 10.2° 999.7 hPa 2.0 m/s 0.0 mm 8.9° 1002.4 hPa 1.2 m/s 0.0 mm 8.0° 998.6 hPa 2.0 m/s
 04:15     22:13    Daglengte: 17:58 Morgen
02:00 6.6° 1000.8 hPa 1.8 m/s 0.0 mm 9.3° 998.5 hPa 3.4 m/s 32.7 mm 7.9° 999.7 hPa 2.1 m/s 0.0 mm 5.7° 1002.6 hPa 1.7 m/s 0.0 mm 6.4° 999.1 hPa 3.0 m/s
05:00 5.2° 1000.4 hPa 1.9 m/s 0.0 mm 7.3° 998.3 hPa 2.9 m/s 32.8 mm 6.8° 999.4 hPa 1.8 m/s 0.0 mm 3.9° 1002.2 hPa 1.7 m/s 0.0 mm 6.4° 998.8 hPa 3.1 m/s
08:00 9.3° 999.9 hPa 2.8 m/s 0.0 mm 10.0° 998.1 hPa 3.4 m/s 32.9 mm 9.6° 998.8 hPa 5.1 m/s 0.0 mm 9.2° 1001.5 hPa 2.2 m/s 0.0 mm 6.6° 998.7 hPa 3.8 m/s
11:00 11.0° 999.6 hPa 4.5 m/s 0.0 mm 13.2° 997.6 hPa 3.6 m/s 32.9 mm 10.3° 999.1 hPa 5.8 m/s 0.0 mm 10.8° 1001.5 hPa 4.7 m/s 0.0 mm 6.5° 999.4 hPa 3.0 m/s
14:00 9.2° 999.9 hPa 4.6 m/s 2.5 mm 15.3° 996.7 hPa 4.2 m/s 32.9 mm 8.0° 1000.0 hPa 6.8 m/s 0.6 mm 8.2° 1002.0 hPa 3.8 m/s 0.0 mm 5.9° 999.8 hPa 2.9 m/s
17:00 10.0° 999.7 hPa 4.5 m/s 2.6 mm 11.9° 997.5 hPa 4.1 m/s 33.0 mm 9.0° 999.5 hPa 5.9 m/s 4.4 mm 10.8° 1001.0 hPa 3.1 m/s 0.0 mm 7.5° 999.3 hPa 2.4 m/s
20:00 11.4° 999.8 hPa 4.6 m/s 2.6 mm 12.8° 997.8 hPa 5.7 m/s 33.7 mm 11.6° 999.9 hPa 5.0 m/s 0.1 mm 12.1° 1000.8 hPa 3.9 m/s 0.0 mm 11.4° 998.8 hPa 3.0 m/s
23:00 9.1° 1001.1 hPa 4.7 m/s 3.9 mm 10.0° 998.8 hPa 5.2 m/s 34.0 mm 9.3° 1001.4 hPa 3.0 m/s 0.0 mm 8.9° 1001.2 hPa 3.9 m/s
 04:13     22:15    Daglengte: 18:02 Zaterdag 28 Mei
02:00 8.5° 1001.7 hPa 3.9 m/s 0.0 mm 8.9° 998.9 hPa 2.5 m/s 34.0 mm 8.8° 1002.0 hPa 4.3 m/s 0.0 mm 6.5° 1002.1 hPa 1.4 m/s
05:00 8.9° 1002.1 hPa 4.5 m/s 0.0 mm 9.9° 999.8 hPa 5.5 m/s 34.0 mm 9.2° 1002.3 hPa 4.0 m/s 0.0 mm 6.1° 1002.8 hPa 1.6 m/s
08:00 11.1° 1002.9 hPa 5.3 m/s 0.0 mm 13.5° 1001.3 hPa 7.1 m/s 34.0 mm 11.1° 1002.7 hPa 3.9 m/s 0.0 mm 11.9° 1003.3 hPa 2.6 m/s
11:00 14.0° 1003.7 hPa 6.1 m/s 0.0 mm 16.0° 1002.0 hPa 7.7 m/s 34.0 mm 14.1° 1003.6 hPa 5.8 m/s 0.1 mm 16.1° 1003.8 hPa 5.0 m/s
14:00 15.6° 1004.6 hPa 7.1 m/s 0.0 mm 17.6° 1002.8 hPa 7.9 m/s 34.0 mm 15.6° 1004.5 hPa 7.3 m/s 0.1 mm 17.5° 1004.6 hPa 4.7 m/s
17:00 16.1° 1005.2 hPa 6.4 m/s 0.0 mm 18.0° 1003.2 hPa 8.1 m/s 34.0 mm 16.1° 1005.1 hPa 6.5 m/s 0.0 mm 18.7° 1004.9 hPa 4.7 m/s
20:00 14.0° 1006.6 hPa 5.5 m/s 0.0 mm 15.0° 1004.6 hPa 7.0 m/s 34.0 mm 14.1° 1006.4 hPa 5.4 m/s 0.0 mm 15.5° 1005.5 hPa 3.8 m/s
23:00 10.0° 1008.0 hPa 4.2 m/s 0.0 mm 10.2° 1005.4 hPa 3.9 m/s 34.0 mm 10.1° 1007.8 hPa 4.1 m/s 0.0 mm 8.1° 1007.3 hPa 1.1 m/s
 04:11     22:17    Daglengte: 18:06 Zondag 29 Mei
02:00 7.9° 1007.7 hPa 2.3 m/s 0.0 mm 6.6° 1005.3 hPa 2.3 m/s 34.0 mm 8.3° 1008.4 hPa 2.3 m/s 0.0 mm 6.1° 1007.9 hPa 0.3 m/s
05:00 7.4° 1007.7 hPa 1.6 m/s 0.0 mm 6.0° 1004.8 hPa 3.1 m/s 34.0 mm 7.8° 1008.4 hPa 1.2 m/s 0.0 mm 5.5° 1008.4 hPa 0.9 m/s
08:00 10.1° 1007.6 hPa 2.9 m/s 0.0 mm 10.4° 1004.7 hPa 4.7 m/s 34.0 mm 10.1° 1008.3 hPa 2.5 m/s 0.0 mm 11.1° 1008.3 hPa 0.9 m/s
11:00 14.7° 1007.5 hPa 2.0 m/s 16.3 mm 14.7° 1007.5 hPa 2.0 m/s 16.3 mm
14:00 16.2° 1007.1 hPa 2.5 m/s 16.3 mm 16.2° 1007.1 hPa 2.5 m/s 16.3 mm
17:00 16.7° 1007.0 hPa 2.5 m/s 16.3 mm 16.7° 1007.0 hPa 2.5 m/s 16.3 mm
20:00 14.3° 1007.7 hPa 3.5 m/s 16.3 mm 14.3° 1007.7 hPa 3.5 m/s 16.3 mm
23:00 8.5° 1010.5 hPa 2.9 m/s 16.3 mm 8.5° 1010.5 hPa 2.9 m/s 16.3 mm
 04:10     22:19    Daglengte: 18:09 Maandag 30 Mei
02:00 5.9° 1011.5 hPa 2.2 m/s 16.3 mm 5.9° 1011.5 hPa 2.2 m/s 16.3 mm
05:00 6.9° 1011.5 hPa 1.5 m/s 16.3 mm 6.9° 1011.5 hPa 1.5 m/s 16.3 mm
08:00 10.1° 1011.4 hPa 1.9 m/s 16.3 mm 10.1° 1011.4 hPa 1.9 m/s 16.3 mm
11:00 12.7° 1011.1 hPa 2.5 m/s 16.3 mm 12.7° 1011.1 hPa 2.5 m/s 16.3 mm
14:00 14.5° 1010.8 hPa 2.4 m/s 16.5 mm 14.5° 1010.8 hPa 2.4 m/s 16.5 mm
17:00 15.7° 1009.7 hPa 1.5 m/s 16.7 mm 15.7° 1009.7 hPa 1.5 m/s 16.7 mm
20:00 14.3° 1009.5 hPa 1.0 m/s 16.8 mm 14.3° 1009.5 hPa 1.0 m/s 16.8 mm
23:00 9.4° 1010.5 hPa 0.8 m/s 16.9 mm 9.4° 1010.5 hPa 0.8 m/s 16.9 mm
 04:08     22:21    Daglengte: 18:13 Dinsdag 31 Mei
02:00 7.4° 1011.4 hPa 0.5 m/s 16.9 mm 7.4° 1011.4 hPa 0.5 m/s 16.9 mm
05:00 8.1° 1011.8 hPa 0.6 m/s 16.9 mm 8.1° 1011.8 hPa 0.6 m/s 16.9 mm
08:00 11.0° 1012.3 hPa 1.2 m/s 16.9 mm 11.0° 1012.3 hPa 1.2 m/s 16.9 mm
11:00 14.4° 1012.1 hPa 1.9 m/s 17.7 mm 14.4° 1012.1 hPa 1.9 m/s 17.7 mm
14:00 12.8° 1012.6 hPa 3.0 m/s 18.8 mm 12.8° 1012.6 hPa 3.0 m/s 18.8 mm
17:00 15.2° 1011.6 hPa 0.9 m/s 19.7 mm 15.2° 1011.6 hPa 0.9 m/s 19.7 mm
20:00 13.2° 1012.0 hPa 1.3 m/s 20.7 mm 13.2° 1012.0 hPa 1.3 m/s 20.7 mm
23:00 8.3° 1013.5 hPa 0.9 m/s 20.7 mm 8.3° 1013.5 hPa 0.9 m/s 20.7 mm
 04:07     22:23    Daglengte: 18:16 Woensdag 01 Jun
02:00 6.9° 1013.9 hPa 0.4 m/s 20.7 mm 6.9° 1013.9 hPa 0.4 m/s 20.7 mm
05:00 6.5° 1014.5 hPa 1.2 m/s 20.7 mm 6.5° 1014.4 hPa 1.2 m/s 20.7 mm
08:00 11.3° 1014.8 hPa 0.7 m/s 20.7 mm 11.4° 1014.7 hPa 0.7 m/s 20.7 mm
11:00 15.6° 1013.8 hPa 1.0 m/s 21.8 mm 15.6° 1013.8 hPa 1.0 m/s 21.8 mm
14:00 19.7° 1012.8 hPa 0.4 m/s 22.1 mm 19.7° 1012.8 hPa 0.4 m/s 22.1 mm
17:00 18.4° 1012.6 hPa 1.7 m/s 22.1 mm 18.4° 1012.6 hPa 1.7 m/s 22.1 mm
20:00 14.9° 1013.3 hPa 3.6 m/s 22.1 mm 14.9° 1013.3 hPa 3.6 m/s 22.1 mm
23:00 9.3° 1014.2 hPa 1.6 m/s 22.1 mm 9.3° 1014.2 hPa 1.6 m/s 22.1 mm
 04:06     22:24    Daglengte: 18:18 Donderdag 02 Jun
02:00 8.0° 1014.9 hPa 0.8 m/s 22.1 mm 8.0° 1014.9 hPa 0.8 m/s 22.1 mm
05:00 7.8° 1015.7 hPa 1.1 m/s 22.1 mm 7.8° 1015.7 hPa 1.1 m/s 22.1 mm
08:00 14.1° 1015.9 hPa 2.2 m/s 22.1 mm 14.1° 1015.9 hPa 2.2 m/s 22.1 mm
14:00 21.9° 1015.3 hPa 0.8 m/s 22.1 mm 21.9° 1015.3 hPa 0.8 m/s 22.1 mm
20:00 17.1° 1015.5 hPa 2.9 m/s 22.1 mm 17.1° 1015.5 hPa 2.9 m/s 22.1 mm
 04:04     22:26    Daglengte: 18:22 Vrijdag 03 Jun
02:00 12.4° 1019.0 hPa 1.6 m/s 22.1 mm 12.4° 1019.0 hPa 1.6 m/s 22.1 mm
08:00 14.0° 1019.3 hPa 2.5 m/s 22.2 mm 14.0° 1019.3 hPa 2.5 m/s 22.2 mm
14:00 21.6° 1018.7 hPa 1.6 m/s 22.2 mm 21.6° 1018.7 hPa 1.6 m/s 22.2 mm
20:00 18.4° 1019.4 hPa 1.3 m/s 22.2 mm 18.4° 1019.4 hPa 1.3 m/s 22.2 mm
 04:03     22:28    Daglengte: 18:25 Zaterdag 04 Jun
02:00 11.4° 1022.5 hPa 1.8 m/s 22.2 mm 11.4° 1022.5 hPa 1.8 m/s 22.2 mm
08:00 16.7° 1024.2 hPa 1.1 m/s 22.2 mm 16.7° 1024.2 hPa 1.1 m/s 22.2 mm
14:00 23.9° 1022.6 hPa 2.2 m/s 22.2 mm 23.9° 1022.6 hPa 2.2 m/s 22.2 mm
20:00 20.9° 1022.1 hPa 2.9 m/s 22.2 mm 20.9° 1022.1 hPa 2.9 m/s 22.2 mm
 04:02     22:29    Daglengte: 18:27 Zondag 05 Jun
02:00 9.6° 1015.4 hPa 1.3 m/s 0.4 mm
08:00 12.2° 1015.2 hPa 1.6 m/s 0.7 mm
14:00 18.4° 1014.1 hPa 0.5 m/s 0.7 mm
20:00 16.3° 1013.1 hPa 0.6 m/s 0.6 mm
 04:01     22:30    Daglengte: 18:29 Maandag 06 Jun
02:00 10.1° 1014.8 hPa 0.7 m/s 0.2 mm
08:00 12.8° 1014.6 hPa 0.7 m/s 0.3 mm
14:00 18.3° 1013.3 hPa 0.3 m/s 0.0 mm
20:00 17.0° 1011.8 hPa 0.6 m/s 0.8 mm
 04:00     22:32    Daglengte: 18:32 Dinsdag 07 Jun
02:00 10.3° 1012.9 hPa 0.6 m/s 0.4 mm
08:00 13.2° 1012.2 hPa 1.1 m/s 0.7 mm
14:00 18.6° 1010.4 hPa 0.7 m/s 0.0 mm
20:00 16.1° 1009.2 hPa 0.9 m/s 1.2 mm
 03:59     22:33    Daglengte: 18:34 Woensdag 08 Jun
02:00 10.4° 1010.4 hPa 0.4 m/s 0.7 mm
08:00 13.0° 1010.1 hPa 0.7 m/s 0.9 mm
14:00 18.4° 1009.1 hPa 0.6 m/s 1.5 mm
20:00 15.6° 1008.5 hPa 0.5 m/s 1.5 mm
 03:58     22:34    Daglengte: 18:36 Donderdag 09 Jun
02:00 10.4° 1009.9 hPa 0.4 m/s 0.5 mm
08:00 12.6° 1009.9 hPa 0.3 m/s 0.4 mm
14:00 17.8° 1009.1 hPa 0.8 m/s 0.6 mm
20:00 15.7° 1008.4 hPa 1.1 m/s 0.7 mm
 03:57     22:36    Daglengte: 18:39 Vrijdag 10 Jun
02:00 10.6° 1009.8 hPa 0.4 m/s 0.5 mm
FMI Hirlam - 7.5 km EWN WRFDA - 12 km DWD ICON - 7 km GFS - 25 km Basiskaart






























































Updatetijd (Europe/Amsterdam) Resolutie Lengte Stap
FMI Hirlam 01:45, 07:45, 13:45, 19:45 7.5 km 49h 1h
EWN WRFDA 04:15, 10:15, 16:15, 22:15 12 km 73h 1h
DWD ICON 05:45, 11:45, 17:45, 23:45 7 km 75h 1h
GFS 02:15, 08:15, 14:15, 20:15 25 km 237h 3h
30+ mm
25-30 mm
20-25 mm
15-20 mm
10-15 mm
6-10 mm
4-6 mm
2-4 mm
1-2 mm
0.5-1 mm
0.2-0.5 mm
0.1-0.2 mm
30+ mm
25-30 mm
20-25 mm
15-20 mm
10-15 mm
6-10 mm
4-6 mm
2-4 mm
1-2 mm
0.5-1 mm
0.2-0.5 mm
0.1-0.2 mm
Sneeuwval
Natte sneeuw
Hagel
Vorst
30+ mm
25-30 mm
20-25 mm
15-20 mm
10-15 mm
6-10 mm
4-6 mm
2-4 mm
1-2 mm
0.5-1 mm
0.2-0.5 mm
0.1-0.2 mm
Sneeuwval
Natte sneeuw
Hagel
Vorst
Onweer
50 mm
40 mm
30 mm
26 mm
22 mm
18 mm
14 mm
10 mm
9 mm
8 mm
7 mm
6 mm
5 mm
4.5 mm
4 mm
3.5 mm
3 mm
2.5 mm
2 mm
1.5 mm
1 mm
0.8 mm
0.6 mm
0.4 mm
0.2 mm
0.05 mm